User: anonymous   Login
Location: Theydon Bois
(51.6750°N, 0.1050°E)
Time: 03:26:31
(UTC+00:00)
Language:

Lacrosse 4 Rocket - Orbit

View from above orbital plane
View from above orbital plane
View from above satellite
View from above satellite

Ground track
Ground track

The orbit data is extracted from the following two-line orbital elements,

1 26474U 00047B   17351.77423843  .00000180  00000-0  26708-4 0  9995
2 26474  67.9950  67.2604 0051978 124.4278 236.1794 14.95616361942834
Epoch (UTC): 17 December 2017 18:34:54
Eccentricity: 0.0051978
inclination: 67.9950°
perigee height: 544 km
apogee height: 616 km
right ascension of ascending node: 67.2604°
argument of perigee: 124.4278°
revolutions per day: 14.95616361
mean anomaly at epoch: 236.1794°
orbit number at epoch: 94283

The dashed part of the orbit path shows where the satellite is in the earth's shadow,  

DLR